Wind_Speed
14 16 17 19 21 24 26 29 32 33 35 37 38 39 40 40 40 44 48 62 56 54 53 48 49 46 46 47 47 46 46 43 41 41 39 41 41 41 41 42 41 40 42 42 44
17 18 19 21 23 25 27 28 29 30 32 35 37 38 42 43 45 45 46 49 62 61 58 56 51 53 50 50 52 52 51 43 42 41 41 43 47 47 49 47 47 48 47 47 42
19 20 22 23 24 26 27 29 31 32 34 36 38 39 39 42 47 50 51 52 51 61 69 62 57 53 58 53 56 56 58 46 43 44 45 49 53 51 52 52 49 48 43 39 36
19 20 21 23 25 26 28 29 30 32 35 37 40 41 42 43 44 48 51 53 52 53 62 68 66 61 58 61 54 58 57 51 46 47 49 51 52 55 54 52 49 47 44 42 43
15 15 16 17 19 21 23 25 28 31 33 36 39 41 43 46 51 52 49 51 53 56 58 67 72 70 66 60 57 60 59 55 50 48 50 53 58 54 59 55 51 51 48 47 46
14 16 19 22 24 26 29 30 32 35 37 38 39 40 42 48 52 54 56 55 54 55 59 61 66 79 75 69 64 62 65 58 54 52 50 56 56 59 60 54 53 54 53 50 48
18 20 22 23 26 27 29 31 33 34 37 39 41 43 47 53 55 55 58 60 62 60 57 60 61 65 79 80 73 67 65 63 61 54 56 53 61 62 56 51 54 52 51 53 52
20 22 24 26 28 31 32 33 35 37 40 44 46 47 52 54 56 59 60 63 65 65 62 63 64 66 67 75 79 78 75 72 61 60 63 61 66 62 56 52 53 55 55 55 53
23 25 27 29 32 35 37 40 42 45 47 50 52 56 62 66 68 66 63 65 70 69 68 70 69 67 68 71 74 77 73 80 71 62 62 68 63 59 59 57 58 57 55 55 53
27 28 29 32 34 37 39 43 47 50 53 57 62 66 70 74 80 82 82 76 72 74 74 75 74 71 70 72 75 74 71 70 81 73 71 69 74 66 64 60 57 58 55 51 49
28 31 32 33 35 38 42 44 48 52 56 62 66 75 80 81 75 70 85 88 83 76 78 79 80 76 65 63 62 65 68 69 66 76 78 75 72 67 64 62 58 56 53 46 42
30 30 33 34 37 38 41 45 50 53 60 64 71 67 58 52 50 47 49 56 67 69 74 81 81 71 71 67 64 64 66 64 62 59 71 77 71 67 65 57 53 49 49 47 43
31 31 33 35 38 40 43 47 50 55 59 64 58 50 48 49 46 31 30 36 38 54 63 76 77 76 74 71 69 66 66 64 62 58 59 61 67 63 59 56 50 45 40 38 38
28 31 30 35 37 40 43 46 49 53 58 57 46 45 41 31 26 23 31 31 29 38 44 60 71 77 77 75 72 70 66 63 61 59 57 57 66 58 50 49 46 35 27 28 32
30 30 32 33 36 39 42 44 48 53 54 47 41 36 34 28 18 21 25 25 18 30 38 47 59 70 74 75 74 69 66 63 61 58 56 56 60 53 42 43 33 25 24 27 30
32 31 32 34 36 38 41 43 47 49 40 38 34 31 29 26 20 23 24 12 13 20 30 37 45 60 69 68 71 68 66 66 64 62 61 53 55 50 38 33 29 31 28 28 32
32 33 33 34 34 36 39 42 46 43 39 36 30 29 28 24 21 17 9 11 15 14 22 34 37 40 51 64 62 66 65 62 63 64 58 55 54 41 31 34 31 30 30 32 31
34 34 33 34 34 35 38 41 42 40 32 30 28 26 26 22 18 21 12 2 7 7 6 17 31 35 38 49 58 63 64 64 65 62 57 51 54 42 32 32 28 17 33 34 34
35 33 34 33 34 33 36 39 40 38 34 28 25 25 22 20 22 17 13 10 8 7 7 9 14 27 38 40 38 52 61 56 59 63 59 56 43 38 37 35 27 26 22 33 30
38 34 34 35 35 32 31 36 38 38 34 31 27 27 23 16 15 15 17 13 16 11 3 4 10 18 14 31 38 40 47 52 56 57 58 53 45 41 38 39 29 32 31 25 20
41 38 36 35 32 33 31 32 35 36 32 31 27 27 25 19 13 12 12 12 13 15 13 8 10 12 16 18 25 38 45 49 52 53 56 53 48 44 42 41 33 33 37 32 27
42 39 37 36 33 32 34 33 34 36 36 30 24 27 25 21 10 12 9 11 11 12 12 13 12 11 15 19 26 34 43 49 52 52 54 54 52 51 47 43 32 36 35 27 19
42 41 38 35 34 29 30 32 34 37 37 30 26 23 23 20 16 14 14 13 13 15 13 14 17 16 16 23 25 28 35 43 50 56 57 59 53 52 50 43 34 33 38 30 28
41 43 41 37 36 32 27 29 32 35 37 31 23 23 19 14 19 11 21 25 25 22 16 16 13 17 17 23 29 32 32 38 50 58 60 63 56 54 51 37 32 35 32 26 29
42 42 42 39 37 36 28 28 31 33 33 28 21 20 19 17 16 15 19 18 17 16 18 19 12 11 12 15 19 29 36 39 50 57 64 57 61 59 50 40 35 39 34 28 30
42 41 40 40 35 37 29 26 28 30 30 27 18 16 20 22 26 19 19 17 14 16 14 18 14 14 12 16 19 22 29 42 47 57 59 60 62 58 48 49 39 44 41 38 33
38 38 36 38 35 34 29 27 28 28 26 23 19 17 21 24 26 25 16 17 9 11 14 17 15 18 13 20 24 16 16 27 44 53 59 62 60 58 52 45 45 45 42 41 37
Wind_Direction
266 265 266 269 270 270 267 263 258 256 254 254 253 254 253 252 251 246 244 241 239 238 238 240 235 235 233 230 231 231 230 225 219 212 210 223 234 240 245 245 248 255 255 261 265
274 271 267 265 264 265 266 268 268 268 267 264 261 256 249 250 253 251 249 244 238 238 237 241 245 238 233 235 232 229 233 226 224 220 216 218 230 241 244 246 252 257 259 265 271
278 275 274 272 271 269 269 269 269 268 266 266 266 265 262 258 250 247 247 245 245 241 237 238 240 242 234 231 233 231 232 228 225 224 219 221 226 237 244 248 252 258 261 259 268
286 285 284 283 283 282 280 277 274 271 269 269 268 266 265 266 264 256 251 251 247 245 241 236 237 238 243 235 234 232 230 230 227 227 226 225 226 233 239 245 249 254 253 259 272
299 298 295 290 288 287 286 284 282 279 275 272 269 266 265 265 261 262 257 252 251 249 242 238 237 237 237 240 242 235 230 227 228 230 228 225 234 232 238 241 248 252 255 261 270
299 296 293 290 288 286 284 281 278 276 275 275 273 270 267 262 260 258 258 256 253 249 248 246 242 237 236 236 239 238 236 231 231 228 226 234 235 238 235 237 242 244 250 259 268
295 295 294 292 291 290 286 283 281 280 280 278 275 273 270 267 263 260 260 255 254 252 248 247 246 244 240 237 235 239 243 240 229 227 227 232 236 239 241 236 245 246 249 253 259
302 304 302 299 296 294 292 290 289 286 285 284 280 277 274 267 263 263 258 257 254 250 248 246 244 245 243 242 241 240 239 239 234 235 234 227 242 242 240 246 249 251 253 261 272
306 307 310 308 304 304 302 301 299 295 292 290 288 284 279 277 273 262 256 255 253 251 247 244 243 241 241 243 241 242 243 242 240 236 238 240 241 243 248 254 258 261 261 267 265
309 308 308 310 306 307 307 306 303 302 301 297 294 290 285 283 281 275 267 259 251 249 245 244 241 240 239 239 242 243 243 243 243 238 239 240 244 249 257 258 259 259 260 257 262
307 307 307 307 306 306 307 308 311 310 305 303 300 298 296 293 291 283 274 262 258 246 244 241 240 239 244 247 245 245 244 243 244 243 240 243 246 248 250 253 255 257 257 257 263
311 309 309 309 308 307 309 308 308 309 315 311 315 308 301 294 290 293 281 272 254 246 236 235 236 237 235 235 236 238 241 242 243 246 245 244 248 249 255 256 257 255 250 251 254
313 313 310 311 310 312 312 314 317 318 319 319 317 308 304 301 298 289 287 289 271 235 228 229 230 231 231 232 231 232 237 240 241 242 246 246 245 248 253 257 258 254 251 251 255
317 314 316 311 315 317 316 320 323 325 325 324 317 316 314 311 294 294 298 291 275 241 232 223 223 224 226 228 229 228 232 236 239 240 242 247 246 243 249 254 255 256 259 249 245
324 321 319 315 317 319 321 325 329 329 329 324 321 321 325 319 303 302 290 292 283 235 231 220 218 219 220 223 225 227 229 232 235 238 239 241 248 239 240 247 253 257 242 240 237
327 325 323 320 321 322 324 329 333 334 330 320 321 318 329 321 301 307 301 298 266 245 225 222 223 219 221 220 222 224 225 229 231 235 237 239 245 239 240 244 242 241 237 237 236
334 329 326 324 322 324 326 333 338 337 334 325 321 314 316 318 310 302 348 296 297 272 240 222 220 220 221 221 219 221 224 226 231 232 237 236 241 238 235 240 239 237 238 237 236
336 331 329 326 323 326 330 335 340 340 334 328 326 319 322 317 305 299 304 3 302 236 260 241 223 224 224 219 221 220 222 224 229 230 233 235 238 231 231 237 235 232 233 233 235
340 335 331 327 324 328 331 336 340 345 342 339 332 332 317 309 309 307 293 282 285 13 171 189 218 229 224 226 219 221 222 222 227 230 230 233 235 231 225 222 240 246 252 230 236
345 341 337 329 326 326 332 335 340 346 345 338 338 335 331 312 295 303 312 284 277 266 214 202 177 188 211 225 227 222 222 222 223 226 228 231 230 226 224 227 212 221 217 205 214
346 344 342 336 327 323 330 338 343 345 344 338 331 333 335 330 290 295 304 301 286 278 283 269 249 245 212 203 213 222 223 223 222 222 226 228 228 227 226 231 218 224 229 236 238
344 341 342 341 333 327 329 341 345 347 346 337 329 327 335 336 291 293 300 286 290 279 257 252 264 248 225 237 231 225 220 223 224 220 222 224 223 228 225 226 218 221 224 227 225
343 342 342 345 339 331 329 340 344 346 347 341 330 328 330 328 327 279 283 288 290 286 263 265 258 251 245 239 242 238 229 223 223 219 219 222 213 222 227 224 218 226 224 223 228
344 341 340 344 343 338 333 340 345 345 346 343 334 334 338 332 328 302 275 277 277 273 273 271 266 249 251 242 236 241 240 229 224 219 215 219 219 215 222 224 220 221 218 214 220
341 342 339 344 344 339 335 338 346 347 346 343 338 344 347 353 346 314 306 300 279 251 259 256 251 247 257 237 245 238 239 237 226 221 219 212 219 219 214 211 219 205 207 217 212
338 340 339 342 344 339 335 336 345 350 349 355 356 348 352 345 337 335 328 315 259 252 225 242 233 263 233 235 252 247 245 240 232 221 215 213 217 220 215 212 200 194 199 212 216
338 338 337 338 342 339 335 332 343 355 347 2 9 356 353 345 347 355 351 340 280 259 224 233 233 259 255 259 254 243 241 241 238 221 216 214 215 219 215 209 203 204 207 214 212
Height
5763 5764 5764 5764 5764 5764 5764 5765 5765 5766 5766 5767 5769 5771 5773 5774 5777 5779 5784 5783 5785 5788 5792 5796 5799 5802 5805 5809 5812 5817 5819 5825 5835 5837 5841 5840 5841 5842 5846 5850 5853 5855 5855 5855 5856
5759 5760 5760 5760 5760 5760 5760 5760 5760 5760 5761 5761 5762 5762 5763 5766 5767 5769 5771 5771 5777 5779 5783 5787 5790 5792 5796 5801 5802 5806 5810 5822 5830 5832 5834 5835 5835 5835 5838 5842 5846 5848 5849 5851 5850
5755 5755 5754 5755 5755 5754 5754 5754 5754 5754 5754 5753 5754 5754 5755 5756 5758 5758 5759 5761 5763 5767 5771 5775 5779 5780 5784 5789 5792 5798 5801 5817 5821 5820 5822 5829 5827 5829 5830 5834 5839 5841 5844 5845 5846
5751 5751 5750 5749 5748 5747 5747 5747 5747 5746 5746 5746 5746 5746 5746 5747 5747 5744 5748 5750 5753 5755 5759 5762 5766 5769 5773 5779 5785 5786 5795 5804 5813 5809 5811 5817 5821 5818 5821 5827 5829 5834 5837 5838 5840
5747 5746 5745 5744 5743 5742 5741 5739 5738 5736 5736 5736 5735 5736 5737 5737 5731 5734 5739 5740 5742 5744 5746 5749 5753 5758 5761 5769 5772 5776 5786 5791 5799 5798 5801 5805 5809 5816 5813 5820 5824 5825 5828 5831 5834
5743 5741 5740 5739 5737 5736 5734 5733 5731 5729 5727 5726 5725 5724 5725 5721 5721 5722 5723 5726 5730 5732 5734 5737 5741 5744 5747 5752 5759 5768 5772 5779 5784 5788 5790 5793 5800 5801 5811 5816 5817 5820 5823 5825 5827
5739 5737 5735 5732 5731 5729 5727 5725 5722 5720 5719 5716 5713 5713 5712 5707 5708 5709 5709 5711 5714 5719 5724 5724 5725 5727 5733 5738 5747 5753 5756 5762 5772 5778 5781 5784 5785 5788 5802 5806 5807 5812 5817 5820 5821
5735 5732 5729 5727 5724 5722 5720 5717 5714 5711 5709 5705 5703 5701 5695 5693 5692 5692 5695 5694 5696 5701 5710 5709 5710 5714 5718 5725 5731 5739 5743 5745 5762 5768 5771 5771 5771 5789 5794 5795 5800 5805 5807 5808 5811
5728 5726 5723 5720 5718 5715 5711 5707 5703 5699 5695 5690 5688 5685 5678 5674 5672 5673 5675 5676 5678 5683 5690 5689 5694 5701 5704 5710 5715 5720 5729 5737 5748 5755 5760 5760 5767 5779 5784 5786 5790 5793 5796 5798 5799
5723 5720 5717 5714 5710 5706 5702 5697 5690 5685 5680 5675 5670 5667 5658 5652 5646 5642 5643 5653 5658 5660 5666 5670 5676 5682 5688 5692 5702 5713 5721 5726 5729 5742 5741 5748 5754 5765 5770 5775 5779 5781 5785 5786 5788
5718 5713 5710 5706 5702 5697 5693 5688 5682 5677 5667 5661 5651 5641 5630 5627 5620 5614 5613 5619 5624 5636 5642 5647 5652 5665 5687 5693 5701 5700 5702 5710 5714 5720 5730 5736 5742 5750 5755 5760 5766 5771 5776 5780 5781
5711 5707 5702 5698 5693 5688 5684 5678 5671 5665 5654 5643 5633 5620 5609 5604 5603 5599 5594 5593 5594 5605 5613 5619 5634 5662 5665 5670 5677 5682 5687 5694 5702 5708 5711 5725 5728 5735 5741 5751 5756 5762 5765 5769 5772
5704 5701 5696 5691 5685 5680 5674 5668 5660 5652 5644 5632 5621 5609 5601 5594 5587 5589 5586 5579 5578 5580 5589 5599 5623 5634 5644 5650 5659 5667 5673 5681 5690 5698 5702 5709 5712 5724 5733 5739 5745 5752 5758 5760 5763
5700 5694 5691 5684 5680 5673 5666 5659 5651 5642 5632 5621 5610 5600 5591 5586 5581 5578 5574 5570 5567 5569 5576 5585 5601 5611 5621 5631 5642 5651 5662 5669 5678 5686 5693 5697 5696 5713 5729 5732 5737 5745 5749 5754 5754
5694 5689 5683 5677 5672 5666 5660 5652 5644 5633 5621 5612 5602 5592 5585 5580 5577 5572 5566 5562 5560 5561 5568 5576 5586 5594 5599 5613 5625 5641 5651 5658 5666 5673 5682 5688 5689 5711 5723 5724 5734 5739 5743 5744 5744
5688 5683 5677 5671 5666 5660 5653 5645 5637 5626 5615 5605 5597 5588 5584 5577 5572 5569 5564 5560 5558 5558 5562 5571 5576 5582 5589 5602 5612 5626 5637 5644 5653 5660 5664 5682 5683 5702 5716 5723 5726 5728 5733 5735 5736
5683 5677 5671 5665 5661 5654 5647 5639 5630 5619 5608 5601 5594 5586 5580 5575 5570 5566 5564 5561 5559 5559 5560 5564 5569 5576 5580 5590 5600 5612 5623 5632 5640 5645 5659 5671 5675 5700 5711 5711 5716 5721 5724 5726 5730
5680 5672 5666 5659 5654 5648 5640 5633 5624 5614 5603 5595 5588 5582 5575 5572 5569 5564 5565 5563 5561 5559 5559 5562 5569 5573 5579 5582 5594 5602 5610 5622 5628 5639 5653 5666 5668 5690 5702 5706 5710 5713 5715 5718 5722
5677 5669 5662 5655 5648 5643 5636 5628 5620 5609 5599 5592 5586 5580 5574 5569 5565 5563 5563 5562 5561 5558 5561 5562 5565 5567 5572 5578 5586 5593 5600 5616 5619 5628 5644 5652 5673 5684 5690 5698 5705 5707 5709 5711 5716
5674 5666 5658 5651 5643 5638 5633 5624 5615 5604 5595 5586 5581 5577 5571 5567 5564 5561 5559 5561 5561 5560 5562 5563 5565 5565 5569 5573 5581 5587 5596 5604 5607 5622 5636 5648 5661 5671 5681 5686 5695 5699 5701 5705 5713
5668 5661 5654 5647 5640 5633 5629 5621 5611 5601 5593 5585 5579 5574 5569 5564 5562 5561 5560 5558 5558 5559 5560 5562 5565 5567 5567 5570 5575 5580 5587 5592 5602 5615 5628 5642 5654 5662 5669 5675 5688 5692 5695 5702 5708
5664 5658 5651 5643 5637 5628 5621 5615 5608 5598 5590 5582 5577 5572 5567 5563 5561 5560 5559 5557 5556 5556 5557 5559 5561 5564 5566 5566 5568 5572 5579 5583 5592 5610 5621 5632 5646 5650 5658 5667 5680 5685 5690 5697 5703
5662 5653 5647 5640 5632 5626 5618 5612 5604 5596 5588 5581 5574 5571 5566 5562 5559 5557 5557 5555 5554 5554 5554 5555 5557 5559 5561 5564 5565 5567 5572 5577 5586 5596 5609 5619 5634 5641 5649 5660 5673 5676 5682 5693 5698
5659 5649 5642 5636 5628 5621 5616 5610 5602 5594 5585 5577 5572 5568 5564 5560 5556 5554 5552 5551 5550 5550 5551 5551 5553 5554 5556 5556 5559 5562 5565 5571 5575 5583 5599 5607 5624 5636 5642 5655 5666 5666 5675 5686 5691
5655 5646 5637 5632 5624 5617 5612 5607 5600 5594 5585 5576 5570 5565 5562 5559 5555 5550 5547 5545 5544 5544 5546 5547 5549 5550 5551 5553 5554 5555 5558 5562 5566 5579 5582 5611 5611 5623 5639 5650 5656 5659 5669 5678 5684
5650 5643 5635 5628 5622 5614 5609 5604 5600 5593 5584 5577 5570 5565 5561 5556 5552 5547 5544 5540 5539 5538 5540 5542 5546 5547 5548 5549 5549 5550 5552 5553 5559 5569 5584 5595 5602 5613 5632 5643 5648 5654 5663 5671 5679
5649 5641 5633 5626 5620 5613 5607 5602 5598 5592 5584 5577 5572 5567 5562 5556 5551 5545 5541 5538 5536 5535 5537 5540 5543 5544 5546 5544 5542 5545 5546 5546 5553 5561 5574 5582 5596 5605 5619 5633 5642 5648 5658 5666 5674